Showing default

HAIYANG 1D, 45721

Orbit data source: Space-Track

HAIYANG 1D, 45721 is a Chinese payload satellite in SSO that was launched on Wed, 10 Jun 2020 UTC via a CHANG ZHENG 2C launch vehicle from the Taiyaun Space Center, China (TSC). Payload-class satellites include a variety of spacecraft equipped with specific instruments for various scientific and technological missions. These include communications satellites like Starlink; space stations such as the ISS; scientific satellites like the Hubble; Earth observation satellites from companies like Planet Labs, Umbra, and HawkEye 360; GPS; miniature CubeSats for education and research; and military/defense satellites.

Loading next visibility...
Identifier
45721, 2020-036A
Orbit
SSO
Country
Flag of CNCN / PRC
Related business
Manufacturer
DFH
Mission
Operational Civil Imaging
Bus & Motor
CAST-968, Unknown motor
Mass
442 kg wet, 429 kg dry
Launch date (UTC)
2020-06-10 (6 years ago)
Launch vehicle
CHANG ZHENG 2C
Launch site
Taiyaun Space Center, China (TSC)
Object type
Payload
Rocket body
Debris
Shape & HBR
Box + 2 Pan, Unknown HBR
Radar Cross Section
3.660 m², Large (>1 m²)

Expand to show TLE details & history
Last TLE update: 22 hours ago

TLE from 22 hours ago
0 HAIYANG 1D
1 45721U 20036A   26172.50793922  .00000101  00000-0  51312-4 0  9993
2 45721  98.4557 114.0937 0003619 118.8845 241.2704 14.34174495315593
Epoch: 2026-06-21T12:11Z
TLE epoch observation values (Epoch: 2026-06-21T12:11:25.948Z)
Latitude
0.00001°
Longitude
21.52837°
Altitude
781.999 km
Speed
7.462 km/s
True Right ascension
07h 36m 22s
True Declination
0° 00' 00"
Sunlit
Object was in daylight at epoch
Visualization orbit readout
Latitude
Unknown
Longitude
Unknown
Altitude
Unknown
Speed
Unknown
Apparent Right ascension
Unknown
Apparent Declination
Unknown
Sunlit
N/A
Visualization observer readout
Local Sidereal Time
21:33:38
Azimuth
Unknown
Elevation
Unknown
Doppler factor
Unknown
Orbital elements
Apogee altitude
777.527 km
Perigee altitude
772.35 km
Semi-major axis
7,153.076 km
Eccentricity
0.00036
Inclination
98.4557°
RAAN
114.0937°
Arg. of periapsis
118.8845°
True anomaly
241.23404°
Mean anomaly
241.2704°
Eccentric anomaly
241.25222°
Mean motion
3.5876 °/min
Orbital period
100.35 mins
BSTAR
0.000051312
Loading maneuver chart data...
Computing Atmospheric mass density...
Loading historical data...
Loading historical data...
Loading historical data...
Loading historical data...
Loading historical data...
Loading historical data...
Loading historical data...
Other satellites on launch #36 in the year 2020 (2020-06-10 UTC)

Documentation

Showing up to 5 results
|